Regional Weather Roundup
Issued by NWS Cleveland, OH

Home | Current Version | Previous Version | Text Only | Print | Product List | Glossary Off
Versions: 1 2 3 4 5 6 7 8 9 10 11 12 13 14 15 16 17 18 19 20 21 22 23 24 25 26 27 28 29 30 31 32 33 34 35 36 37 38 39 40 41 42 43 44 45 46 47 48 49 50

000
ASUS41 KCLE 271010
RWRCLE
OHIO REGIONAL WEATHER ROUNDUP
NATIONAL WEATHER SERVICE WILMINGTON, OH
600 AM EDT MON APR 27 2015

NOTE: "FAIR" INDICATES FEW OR NO CLOUDS BELOW 12,000 FEET WITH NO
SIGNIFICANT WEATHER AND/OR OBSTRUCTIONS TO VISIBILITY.

OHZ001>008-015>018-024>027-034-035-043-044-271100-
   NORTHWEST OHIO

CITY           SKY/WX    TMP DP  RH WIND       PRES   REMARKS
DEFIANCE       CLEAR     37  32  82 W3        29.94F
FINDLAY        CLEAR     40  32  73 CALM      29.91S
TOLEDO EXPRESS CLOUDY    38  32  79 CALM      29.92S
TOLEDO EXEC    CLOUDY    38  32  79 W6        29.93S
LIMA           CLEAR     39  32  76 NE3       29.92S
$$

OHZ009>014-019>023-028>033-038-089-271100-
   NORTHEAST OHIO

CITY           SKY/WX    TMP DP  RH WIND       PRES   REMARKS
CLE-HOPKINS    MOCLDY    40  34  79 W8        29.90S
CLE-LAKEFRONT  CLOUDY    43  36  76 W15       29.87S
CUY CO. ARPT   NOT AVBL
LORAIN-ELYRIA  CLOUDY    37  34  89 W5        29.89F
ASHTABULA      CLOUDY    39  34  82 NW6       29.85R
AKRON-CANTON   CLOUDY    38  32  79 NW8       29.86S
WOOSTER        CLEAR     34  30  85 NW6       29.88S WCI  29
MANSFIELD      CLEAR     35  31  85 W5        29.89S
YOUNGSTOWN     CLOUDY    37  32  82 W6        29.83S
$$

OHZ042-051>053-060>062-070>072-077>081-271100-
  SOUTHWEST OHIO

CITY           SKY/WX    TMP DP  RH WIND       PRES   REMARKS
CINC-COVINGTON CLEAR     37  33  85 W6        29.91S
CINC-LUNKEN    CLEAR     34  34 100 NE3       29.94R
HAMILTON       CLEAR     35  34  96 CALM      29.94R
DAYTON         CLEAR     42  32  67 E6        29.91S
WRIGHT-PAT AFB CLEAR     33  31  93 NW2       29.91S
DAYTON GENERAL CLEAR     35  32  88 NE6       29.91R
WILMINGTON     CLEAR     35  29  78 N3        29.91R
$$

OHZ036-037-039>041-045>050-054>059-063>069-073>076-082>088-271100-
  CENTRAL AND SOUTHEAST OHIO

CITY           SKY/WX    TMP DP  RH WIND       PRES   REMARKS
COLUMBUS       CLEAR     37  31  78 N6        29.90R
OSU AIRPORT    CLEAR     37  30  75 N6        29.90S
BOLTON FIELD   CLEAR     33  31  91 W3        29.91R
RICKENBACK AFB CLEAR     38  32  80 NW3       29.90S
NEWARK         CLEAR     38  30  73 CALM      29.89S
MARION         CLEAR     36  30  79 NW5       29.91S
LANCASTER      CLEAR     33  30  88 CALM      29.90R
ZANESVILLE     CLEAR     36  28  73 NW6       29.88S
NEW PHILLY     CLEAR     37  30  75 NW3       29.88S
$$


USA.gov is the U.S. government's official web portal to all federal, state and local government web resources and services.